Tracking 28779 objects as of 15-Apr-2024
HD Live streaming from Space Station
objects crossing your sky now

FENGYUN 1C DEB

Track FENGYUN 1C DEB now!
10-day predictions


NORAD ID: 30357
Int'l Code: 1999-025ABU
Perigee: 848.9 km
Apogee: 920.2 km
Inclination: 98.9 °
Period: 102.5 minutes
Semi major axis: 7255 km
RCS: 0.042 m2 (small)
Launch date: May 10, 1999
Source: People's Republic of China (PRC)
Launch site: Taiyaun Space Center, China (TSC)

Note: This is SATELLITE DEBRIS
Your satellite tracking list
Your tracking list is empty




NASA's NSSDC Master Catalog

Two Line Element Set (TLE):
1 30357U 99025ABU 24106.35056867  .00000440  00000-0  29826-3 0  9994
2 30357  98.8728 142.9888 0049172 225.9211 262.5634 14.04742462882917
Source of the keplerian elements: AFSPC